[[{"header":{"parameterUnit":"m.s-1","parameterCategory":1,"la1":30.2991,"la2":30.254,"lo1":-89.0895,"lo2":-89.0444,"dy":0.0017,"dx":0.0017,"nx":28,"ny":28,"refTime":"2025-04-24T09:00:00:Z","depth":0,"parameterNumber":2,"parameterNumberName":"U-component_of_WINDS"},"data":[0,0,0,0,0,0,0,0,0,0,0,0,0,0,0,0,0,0,0,0,0,0,0,0,0,0,0,0,0,0,0,0,0,0,0,0,0,0,0,0,0,0,0,0,0,0,0,0,0,0,0,0,0,0,0,0,0,0,-3.8922,-3.8923,0,-3.8972,-3.8973,-3.8973,-3.8908,-3.8906,-3.8903,-3.8901,-3.8951,-3.8954,-3.8958,0,0,0,0,0,0,0,0,0,0,0,0,0,-3.8767,-3.8771,-3.8922,-3.8923,-3.8923,-3.8972,-3.8973,-3.8974,-3.8908,-3.8905,-3.8903,-3.89,-3.895,-3.8954,-3.8958,0,0,0,0,0,0,0,0,0,0,0,0,0,-3.8828,-3.8772,-3.8922,-3.8897,-3.8895,-3.8972,-3.8973,-3.8974,-3.8909,-3.8905,-3.8902,-3.8898,-3.8948,-3.8953,-3.8959,-3.9063,0,0,-3.8975,-3.8977,0,0,0,0,0,0,0,0,-3.8824,-3.8834,-3.89,-3.8899,-3.8897,-3.893,-3.8937,-3.9004,-3.891,-3.8904,-3.8901,-3.8897,-3.8947,-3.8952,-3.8969,-3.9065,-3.9067,-3.8975,-3.8979,-3.8981,-3.8982,0,0,0,0,0,0,0,-3.882,-3.8831,-3.8942,-3.8901,-3.8899,-3.8882,-3.8887,-3.8949,-3.8944,-3.8904,-3.8899,-3.8906,-3.8945,-3.8964,-3.897,-3.9068,-3.8975,-3.898,-3.8983,-3.8985,-3.925,-3.9253,0,0,0,0,0,0,-3.8819,-3.8828,-3.894,-3.8943,-3.8851,-3.8888,-3.8893,-3.8923,-3.8944,-3.8943,-3.8909,-3.8903,-3.8957,-3.8964,-3.8971,-3.9093,-3.8981,-3.8986,-3.8989,-3.9246,-3.9251,-3.9255,0,0,0,0,0,0,-3.8816,-3.883,-3.8938,-3.8884,-3.8897,-3.8894,-3.8929,-3.8926,-3.8945,-3.8948,-3.8946,-3.8929,-3.8954,-3.8964,-3.904,-3.9094,-3.8988,-3.8993,-3.9241,-3.9247,-3.9253,-3.9338,0,0,0,0,0,0,-3.8812,-3.8829,-3.8869,-3.8886,-3.89,-3.9007,-3.8932,-3.8929,-3.8954,-3.8947,-3.8966,-3.8966,-3.8952,-3.9033,-3.9045,-3.9099,-3.8997,-3.9237,-3.9244,-3.9251,-3.933,-3.9346,-3.9359,0,0,0,0,0,-3.8807,-3.8891,-3.8872,-3.8886,-3.895,-3.901,-3.9018,-3.9001,-3.8959,-3.8998,-3.9,-3.8966,-3.9086,-3.9041,-3.9055,-3.9111,-3.9233,-3.9242,-3.925,-3.9324,-3.9343,-3.9359,0,0,0,0,0,0,-3.8881,-3.8893,-3.8871,-3.8964,-3.8987,-3.8999,-3.9048,-3.9022,-3.9057,-3.9048,-3.9025,-3.903,-3.9111,-3.9119,-3.9068,-3.9212,-3.9153,-3.9164,-3.9204,-3.9222,-3.9236,-3.9231,-3.9002,0,0,0,0,0,-3.8908,-3.8956,-3.8964,-3.9045,-3.9058,-3.9052,-3.9077,-3.9062,-3.9084,-3.9093,-3.9101,-3.9123,-3.9166,-3.9194,-3.9234,-3.9332,-3.9334,-3.9377,-3.9392,-3.9403,-3.9413,-3.9464,-3.9482,-3.9283,-3.9283,-3.9283,0,0,-3.8964,-3.8977,-3.9009,-3.906,-3.9076,-3.9126,-3.906,-3.9116,-3.9152,-3.9102,-3.9173,-3.918,-3.9204,-3.9291,-3.9329,-3.9299,-3.9469,-3.9414,-3.9424,-3.9427,-3.9475,-3.9493,-3.951,-3.9289,-3.9288,-3.9287,0,0,-3.9091,-3.9107,-3.9175,-3.9192,-3.9217,-3.9213,-3.9229,-3.9246,-3.9248,-3.932,-3.9283,-3.9326,-3.9401,-3.9419,-3.9437,-3.9572,-3.954,-3.9586,-3.966,-3.971,-3.9726,-3.9739,-3.9786,-3.9803,-3.9596,-3.9596,-3.9596,0,-3.9158,-3.9232,-3.9213,-3.9271,-3.9294,-3.9252,-3.932,-3.9338,-3.9374,-3.9391,-3.9357,-3.9449,-3.9463,-3.9552,-3.9585,-3.9602,-3.9619,-3.9582,-3.9725,-3.9739,-3.9751,-3.9795,-3.9813,-3.9601,-3.9601,-3.96,-3.96,0,-3.9312,-3.9364,-3.9416,-3.9452,-3.9481,-3.9544,-3.9534,-3.9566,-3.9549,-3.9547,-3.9621,-3.9635,-3.9676,-3.9697,-3.968,-3.9784,-3.9764,-3.9729,-3.9668,-3.9776,-3.9816,-3.9833,-3.9609,-3.9607,-3.9605,-3.9604,0,0,-3.9486,-3.9511,-3.9531,-3.9546,-3.957,-3.961,-3.9671,-3.9711,-3.9738,-3.9765,-3.9814,-3.9879,-3.9845,-3.9867,-3.9852,-3.9896,-3.9999,-3.9854,-3.9854,-3.9879,-4.0113,-4.0138,-4.0158,-3.998,-3.9983,-3.9985,-4.011,0,-3.9612,-3.9717,-3.9702,-3.9803,-3.985,-3.981,-3.9863,-3.9883,-3.9884,-3.9923,-3.9923,-3.9969,-3.9922,-3.9935,-3.9977,-3.9978,-4.0046,-3.9969,-4.0024,-4.0026,-4.0017,-4.0179,-4.0207,-4.0323,-4.0126,-4.0129,-4.0131,0,-3.9773,-3.9806,-3.9911,-3.9927,-3.9947,-3.9994,-4.003,-4.0068,-4.009,-4.0087,-4.0112,-4.0089,-4.0148,-4.0089,-4.017,-4.0118,-4.014,-4.0144,-4.0148,-4.0151,-4.0083,-4.0185,-4.0361,-4.0377,-4.0156,-4.0154,-4.0152,0,-3.9887,-3.9958,-4.003,-4.0044,-4.0066,-4.01,-4.011,-4.0129,-4.0154,-4.0185,-4.0201,-4.0238,-4.0259,-4.0288,-4.0276,-4.0233,-4.0359,-4.0298,-4.0356,-4.0357,-4.0383,-4.0381,-4.0563,-4.0401,-4.04,-4.04,-4.04,0,-4.0028,-4.0094,-4.0081,-4.0125,-4.0197,-4.0179,-4.0251,-4.0256,-4.0273,-4.0317,-4.0285,-4.0327,-4.0309,-4.0349,-4.034,-4.0408,-4.0418,-4.0416,-4.0412,-4.0418,-4.0418,-4.043,-4.0421,-4.0405,-4.0404,-4.0403,-4.0402,0,-4.0167,-4.0162,-4.0237,-4.0251,-4.0256,-4.0308,-4.032,-4.0361,-4.0359,-4.0415,-4.0427,-4.0424,-4.0469,-4.0461,-4.0511,-4.0505,-4.0589,-4.0576,-4.0581,-4.0578,-4.0636,-4.063,-4.083,-4.0855,-4.0679,-4.068,-4.0682,0,-4.0257,-4.0306,-4.0326,-4.0353,-4.0366,-4.041,-4.0436,-4.042,-4.0447,-4.0476,-4.0513,-4.0556,-4.0589,-4.0664,-4.0666,-4.0704,-4.0691,-4.0758,-4.0696,-4.0699,-4.0689,-4.0686,-4.069,-4.077,-4.0772,-4.0774,-4.0775,0,-4.0416,-4.041,-4.0448,-4.0486,-4.0517,-4.0545,-4.0571,-4.0595,-4.0581,-4.0613,-4.066,-4.0686,-4.0737,-4.0779,-4.0815,-4.0824,-4.0797,-4.0795,-4.081,-4.0815,-4.0815,-4.0814,-4.0613,-4.079,-4.0788,-4.0787,-4.0786,-4.0786,-4.0531,-4.0573,-4.0593,-4.0636,-4.0654,-4.0678,-4.0717,-4.072,-4.0758,-4.0799,-4.0787,-4.084,-4.0859,-4.0904,-4.0918,-4.0958,-4.0932,-4.0955,-4.096,-4.0966,-4.0972,-4.0811,-4.0965,-4.0964,-4.0964,-4.0963,-4.0963,0,-4.0687,-4.0698,-4.0738,-4.0774,-4.0808,-4.0781,-4.0807,-4.0837,-4.0883,-4.0904,-4.0938,-4.099,-4.1031,-4.1037,-4.1075,-4.1106,-4.1095,-4.1117,-4.1113,-4.1116,-4.0993,-4.0975,-4.1125,-4.1125,-4.1125,-4.1125,-4.1125,-4.1125,-4.0772,-4.084,-4.0837,-4.0914,-4.0924,-4.0975,-4.0992,-4.1014,-4.1031,-4.1091,-4.1125,-4.1128,-4.1143,-4.1182,-4.1218,-4.1219,-4.1233,-4.126,-4.1255,-4.1141,-4.1124,-4.1109,-4.1092,-4.1264,-4.1264,-4.1374,-4.1375,-4.1376]},{"header":{"parameterUnit":"m.s-1","parameterCategory":1,"la1":30.2991,"la2":30.254,"lo1":-89.0895,"lo2":-89.0444,"dy":0.0017,"dx":0.0017,"nx":28,"ny":28,"refTime":"2025-04-24T09:00:00:Z","depth":0,"parameterNumber":3,"parameterNumberName":"V-component_of_WINDS"},"data":[0,0,0,0,0,0,0,0,0,0,0,0,0,0,0,0,0,0,0,0,0,0,0,0,0,0,0,0,0,0,0,0,0,0,0,0,0,0,0,0,0,0,0,0,0,0,0,0,0,0,0,0,0,0,0,0,0,0,0.9562,0.9562,0,0.9556,0.9556,0.9556,0.9508,0.9507,0.9506,0.9505,0.9498,0.9499,0.95,0,0,0,0,0,0,0,0,0,0,0,0,0,0.9533,0.9534,0.9562,0.9562,0.9562,0.9556,0.9556,0.9556,0.9508,0.9507,0.9505,0.9504,0.9498,0.9499,0.95,0,0,0,0,0,0,0,0,0,0,0,0,0,0.9538,0.9534,0.9562,0.9537,0.9535,0.9556,0.9556,0.9556,0.9508,0.9507,0.9505,0.9503,0.9498,0.9499,0.95,0.9544,0,0,0.9505,0.9505,0,0,0,0,0,0,0,0,0.9538,0.9539,0.9541,0.9539,0.9537,0.9531,0.9543,0.9552,0.9509,0.9519,0.9505,0.9502,0.9511,0.9511,0.9513,0.9544,0.9544,0.9505,0.9506,0.9506,0.9507,0,0,0,0,0,0,0,0.9537,0.9539,0.9559,0.9541,0.9538,0.9527,0.9526,0.9544,0.9525,0.9518,0.9514,0.9514,0.9509,0.9512,0.9513,0.9543,0.9505,0.9506,0.9507,0.9507,0.961,0.9612,0,0,0,0,0,0,0.954,0.9539,0.956,0.9559,0.9533,0.9529,0.9527,0.9534,0.9524,0.9521,0.9516,0.9512,0.9511,0.9511,0.9513,0.9563,0.9506,0.9508,0.9508,0.9608,0.961,0.9612,0,0,0,0,0,0,0.954,0.9543,0.956,0.9548,0.9549,0.9531,0.9539,0.9535,0.9538,0.9523,0.9519,0.9523,0.9509,0.9511,0.9537,0.9562,0.9508,0.9509,0.9606,0.9609,0.9611,0.9665,0,0,0,0,0,0,0.9539,0.9543,0.9559,0.9549,0.955,0.9584,0.9541,0.9536,0.9541,0.9536,0.9528,0.9525,0.9508,0.9535,0.9538,0.9563,0.951,0.9603,0.9607,0.961,0.9661,0.9669,0.9676,0,0,0,0,0,0.9539,0.9574,0.956,0.9563,0.957,0.9586,0.9586,0.9566,0.9543,0.9559,0.9549,0.9525,0.9559,0.9538,0.9541,0.9567,0.9602,0.9606,0.961,0.9657,0.9667,0.9676,0,0,0,0,0,0,0.9588,0.9572,0.9557,0.959,0.959,0.9577,0.9597,0.9577,0.9583,0.9578,0.9553,0.9552,0.9582,0.9577,0.9554,0.9609,0.9576,0.9581,0.9611,0.9621,0.9628,0.9629,0.9512,0,0,0,0,0,0.9603,0.9616,0.9602,0.9633,0.9634,0.9616,0.9622,0.9606,0.9604,0.9604,0.9596,0.9595,0.9605,0.9613,0.9621,0.966,0.9658,0.9679,0.9687,0.9694,0.9698,0.9718,0.9728,0.9626,0.9626,0.9626,0,0,0.9633,0.9627,0.9637,0.9643,0.9641,0.9656,0.9616,0.9633,0.9644,0.9606,0.963,0.9625,0.9622,0.9655,0.9669,0.9652,0.9726,0.9699,0.9704,0.9705,0.9724,0.9733,0.9742,0.9629,0.9629,0.9628,0,0,0.9696,0.9693,0.9718,0.9717,0.9714,0.9702,0.9708,0.97,0.9694,0.9718,0.9691,0.9703,0.9722,0.9721,0.9723,0.9788,0.9766,0.9791,0.9832,0.9852,0.986,0.9867,0.989,0.9898,0.9796,0.9796,0.9796,0,0.9735,0.9756,0.9734,0.9753,0.9757,0.9724,0.975,0.975,0.975,0.9753,0.9735,0.9757,0.9753,0.9785,0.9801,0.9804,0.9811,0.9792,0.9861,0.9867,0.9873,0.9895,0.9904,0.9799,0.9799,0.9798,0.9798,0,0.9803,0.9819,0.984,0.9841,0.9847,0.9869,0.9851,0.986,0.9844,0.9834,0.9859,0.9854,0.9861,0.9867,0.9852,0.9897,0.9887,0.9865,0.9831,0.9887,0.9906,0.9915,0.9804,0.9802,0.9801,0.9801,0,0,0.9896,0.9886,0.9894,0.9894,0.9889,0.9901,0.9922,0.9929,0.9937,0.9939,0.9956,0.9973,0.9952,0.9955,0.9939,0.9957,1.0008,0.9933,0.9932,0.9947,1.0058,1.0075,1.0085,0.9994,0.9996,0.9997,1.0058,0,0.9957,0.9993,0.9974,1.0012,1.0026,0.9996,1.0014,1.0013,1.0005,1.0015,1.0006,1.0018,0.9991,0.9992,1.0008,0.9999,1.003,0.9994,1.001,1.0011,1.0011,1.0095,1.0112,1.017,1.0066,1.0067,1.0068,0,1.0032,1.0038,1.0077,1.007,1.0075,1.0092,1.0097,1.0108,1.0106,1.0099,1.0102,1.0083,1.0103,1.0071,1.0099,1.0075,1.008,1.0077,1.0078,1.0079,1.0042,1.0097,1.0188,1.0197,1.008,1.0079,1.0078,0,1.0096,1.0113,1.0139,1.014,1.0132,1.0145,1.0143,1.0139,1.0145,1.015,1.0153,1.016,1.0164,1.017,1.0153,1.0131,1.0184,1.015,1.0178,1.0179,1.019,1.019,1.0284,1.0195,1.0195,1.0194,1.0194,0,1.0166,1.0191,1.0168,1.0184,1.0211,1.019,1.0218,1.0212,1.0209,1.0224,1.0198,1.0212,1.0189,1.0201,1.0188,1.0213,1.0215,1.021,1.0206,1.0212,1.0213,1.0215,1.021,1.0197,1.0196,1.0196,1.0195,0,1.0242,1.0227,1.0253,1.0244,1.0242,1.0263,1.0255,1.0269,1.026,1.0278,1.0281,1.0266,1.0279,1.0262,1.0274,1.0265,1.0299,1.029,1.03,1.0297,1.0326,1.0324,1.0424,1.0437,1.034,1.0341,1.0342,0,1.0287,1.0306,1.0299,1.0307,1.0305,1.0318,1.0324,1.0304,1.0311,1.0311,1.0326,1.0336,1.0344,1.0365,1.0355,1.0364,1.0354,1.0389,1.0355,1.036,1.0354,1.0353,1.0355,1.0395,1.0396,1.0397,1.0398,0,1.0368,1.036,1.037,1.0377,1.0385,1.0389,1.0392,1.04,1.0379,1.0388,1.0401,1.0407,1.0418,1.0429,1.0435,1.0432,1.0412,1.0409,1.0416,1.0422,1.0427,1.0425,1.0318,1.0407,1.0406,1.0405,1.0405,1.0404,1.043,1.0446,1.0443,1.0455,1.0455,1.0458,1.0471,1.0463,1.0473,1.0481,1.0469,1.0485,1.0483,1.0489,1.0489,1.0501,1.0486,1.0497,1.0499,1.0502,1.0506,1.0426,1.0502,1.0502,1.0502,1.0502,1.0502,0,1.051,1.0507,1.0518,1.0523,1.0532,1.0513,1.0515,1.0524,1.0538,1.0538,1.0546,1.0561,1.0572,1.0563,1.0572,1.0583,1.0574,1.0586,1.0585,1.0585,1.0519,1.0512,1.0593,1.0593,1.0593,1.0593,1.0593,1.0593,1.0553,1.0578,1.057,1.0595,1.0592,1.0608,1.0611,1.0614,1.0614,1.0632,1.064,1.0635,1.0631,1.064,1.0649,1.0646,1.065,1.0666,1.0659,1.0598,1.0589,1.0581,1.0574,1.0667,1.0667,1.0724,1.0724,1.0725]}]]